Land O' Lakes, WI

10:32 AM CDT on June 28, 2017 (GMT -0500)
Kings Land O'Lakes

Weather History for KLNL - March, 2014

Change the Weather History Date:

Sunday, March 23, 2014

  Actual Average (KEGV) Record (KEGV)
Temperature  
Mean Temperature -2 °F -  
Max Temperature 19 °F 38 °F 60 °F (2003)
Min Temperature -22 °F 16 °F -12 °F (2014)
Degree Days  
Heating Degree Days 66    
Moisture  
Dew Point -8 °F    
Average Humidity 68    
Maximum Humidity 86    
Minimum Humidity 45    
Precipitation  
Precipitation 0.00 in - - ()
Sea Level Pressure  
Sea Level Pressure 30.29 in    
Wind  
Wind Speed 2 mph (WNW)    
Max Wind Speed 9 mph    
Max Gust Speed 17 mph    
Visibility 10 miles    
Events Snow    
Averages and records for this station are not official NWS values.
T = Trace of Precipitation, MM = Missing Value Source: NWS Daily Summary

Daily Weather History Graph

Daily Weather History Graph

Search for Another Location

Airport or City:

Trip Planner

Search our weather history database for the weather conditions in past years. The results will help you decide how hot, cold, wet, or windy it might be!

Date:

Astronomy

Mar. 23, 2014 Rise Set
Actual Time 6:54 AM CDT 7:13 PM CDT
Civil Twilight 6:24 AM CDT 7:43 PM CDT
Nautical Twilight 5:48 AM CDT 8:18 PM CDT
Astronomical Twilight 5:12 AM CDT 8:55 PM CDT
Moon 1:46 AM CDT (3/23) 11:19 AM CDT (3/23)
Length of Visible Light 13h 19m
Length of Day
12h 19m
Waning Gibbous, 54% of the Moon is Illuminated
Mar 23
Waning Gibbous
Mar 23
Last Quarter
Mar 30
New
Apr 7
First Quarter
Apr 15
Full

Hourly Weather History & Observations

Time (CDT) Temp. Windchill Dew Point Humidity Pressure Visibility Wind Dir Wind Speed Gust Speed Precip Events Conditions
12:15 AM -4.5 °F -13.0 °F -8.3 °F 84% 30.31 in 1.8 mi West 3.5 mph - N/A Snow Light Snow
12:35 AM -4.9 °F - -8.5 °F 84% 30.31 in 5.0 mi Calm Calm - N/A Snow Light Snow
12:55 AM -6.9 °F - -10.8 °F 83% 30.31 in 7.0 mi Calm Calm - N/A Snow Light Snow
1:15 AM -8.0 °F - -12.1 °F 82% 30.31 in 10.0 mi Calm Calm - N/A   Clear
1:35 AM -9.0 °F -18.2 °F -13.7 °F 80% 30.31 in 10.0 mi West 3.5 mph - N/A   Clear
1:55 AM -10.1 °F - -15.0 °F 79% 30.32 in 10.0 mi Calm Calm - N/A   Clear
2:15 AM -11.2 °F - -16.1 °F 79% 30.32 in 10.0 mi Calm Calm - N/A   Clear
2:35 AM -12.6 °F - -17.7 °F 78% 30.32 in 10.0 mi Calm Calm - N/A   Clear
2:55 AM -13.2 °F - -18.0 °F 79% 30.32 in 10.0 mi Calm Calm - N/A   Clear
3:15 AM -14.8 °F - -20.0 °F 77% 30.31 in 10.0 mi Calm Calm - N/A   Clear
3:35 AM -15.3 °F - -20.7 °F 77% 30.31 in 10.0 mi Calm Calm - N/A   Clear
3:55 AM -15.9 °F - -21.3 °F 77% 30.31 in 10.0 mi Calm Calm - N/A   Clear
4:15 AM -16.8 °F - -22.5 °F 75% 30.31 in 10.0 mi Calm Calm - N/A   Clear
4:35 AM -17.7 °F - -23.8 °F 74% 30.31 in 10.0 mi Calm Calm - N/A   Clear
4:55 AM -17.9 °F - -23.4 °F 76% 30.32 in 10.0 mi Calm Calm - N/A   Clear
5:15 AM -19.3 °F - -25.6 °F 73% 30.32 in 10.0 mi Calm Calm - N/A   Clear
5:35 AM -18.8 °F - -24.5 °F 75% 30.32 in 10.0 mi Calm Calm - N/A   Clear
5:55 AM -20.9 °F - -27.4 °F 72% 30.32 in 10.0 mi Calm Calm - N/A   Clear
6:15 AM -21.1 °F - -27.8 °F 71% 30.32 in 10.0 mi Calm Calm - N/A   Clear
6:35 AM -21.8 °F - -27.9 °F 73% 30.32 in 10.0 mi Calm Calm - N/A   Clear
6:55 AM -22.0 °F - -28.3 °F 73% 30.32 in 10.0 mi Calm Calm - N/A   Clear
7:15 AM -20.4 °F - -26.3 °F 74% 30.32 in 10.0 mi Calm Calm - N/A   Clear
7:35 AM -19.1 °F - -24.9 °F 75% 30.32 in 10.0 mi Calm Calm - N/A   Clear
7:55 AM -15.2 °F - -20.6 °F 77% 30.32 in 10.0 mi Calm Calm - N/A   Clear
8:15 AM -9.0 °F - -13.7 °F 80% 30.33 in 10.0 mi Calm Calm - N/A   Clear
8:35 AM -1.8 °F - -5.4 °F 85% 30.33 in 10.0 mi Calm Calm - N/A   Clear
8:55 AM 4.1 °F -5.1 °F -0.2 °F 82% 30.33 in 10.0 mi West 4.6 mph - N/A   Clear
9:15 AM 6.1 °F -5.6 °F 1.4 °F 81% 30.33 in 10.0 mi NW 6.9 mph - N/A   Clear
9:35 AM 8.1 °F -2.0 °F 2.5 °F 78% 30.33 in 10.0 mi WNW 5.8 mph - N/A   Clear
9:55 AM 9.3 °F 1.0 °F 3.0 °F 76% 30.33 in 10.0 mi WNW 4.6 mph - N/A   Clear
10:15 AM 10.8 °F 1.2 °F 2.8 °F 70% 30.33 in 10.0 mi WNW 5.8 mph - N/A   Clear
10:35 AM 11.7 °F 0.0 °F 1.9 °F 65% 30.33 in 10.0 mi WSW 8.1 mph - N/A   Clear
10:55 AM 12.4 °F 3.1 °F 1.2 °F 61% 30.32 in 10.0 mi West 5.8 mph - N/A   Scattered Clouds
11:15 AM 13.6 °F 2.5 °F 0.5 °F 56% 30.32 in 10.0 mi WNW 8.1 mph - N/A   Scattered Clouds
11:35 AM 14.2 °F 3.1 °F 0.1 °F 54% 30.32 in 7.0 mi WNW 8.1 mph - N/A   Mostly Cloudy
11:55 AM 15.1 °F 5.2 °F 0.3 °F 52% 30.31 in 10.0 mi West 6.9 mph 16.1 mph N/A   Mostly Cloudy
12:15 PM 14.5 °F 7.1 °F 0.5 °F 54% 30.31 in 10.0 mi WNW 4.6 mph - N/A   Mostly Cloudy
12:35 PM 14.9 °F 3.1 °F 0.9 °F 54% 30.30 in 10.0 mi West 9.2 mph 17.3 mph N/A   Mostly Cloudy
12:55 PM 15.4 °F 4.6 °F 1.2 °F 54% 30.30 in 10.0 mi WNW 8.1 mph - N/A   Overcast
1:15 PM 17.1 °F 6.6 °F 1.2 °F 50% 30.29 in 10.0 mi WNW 8.1 mph - N/A   Overcast
1:35 PM 16.2 °F 9.0 °F 1.9 °F 54% 30.29 in 10.0 mi WNW 4.6 mph - N/A   Overcast
1:55 PM 15.8 °F 6.1 °F 1.8 °F 54% 30.28 in 10.0 mi NW 6.9 mph - N/A   Overcast
2:15 PM 16.5 °F 6.9 °F 1.6 °F 52% 30.28 in 10.0 mi NNW 6.9 mph - N/A   Overcast
2:35 PM 16.5 °F 6.0 °F 2.5 °F 54% 30.28 in 10.0 mi NW 8.1 mph - N/A   Overcast
2:55 PM 17.8 °F 10.9 °F 1.2 °F 48% 30.27 in 10.0 mi West 4.6 mph - N/A   Overcast
3:15 PM 16.9 °F 8.5 °F 2.5 °F 53% 30.27 in 10.0 mi NW 5.8 mph - N/A   Overcast
3:35 PM 18.0 °F 7.7 °F 2.5 °F 51% 30.26 in 10.0 mi NW 8.1 mph - N/A   Overcast
3:55 PM 18.9 °F 10.8 °F 3.7 °F 52% 30.26 in 10.0 mi WNW 5.8 mph - N/A   Overcast
4:15 PM 19.2 °F 8.4 °F 2.7 °F 49% 30.25 in 10.0 mi West 9.2 mph - N/A   Overcast
4:35 PM 18.7 °F 10.6 °F 1.6 °F 47% 30.25 in 10.0 mi WSW 5.8 mph - N/A   Overcast
4:55 PM 18.9 °F 10.8 °F 0.7 °F 45% 30.25 in 10.0 mi West 5.8 mph - N/A   Overcast
5:15 PM 18.5 °F 8.4 °F 1.2 °F 47% 30.25 in 10.0 mi West 8.1 mph 17.3 mph N/A   Mostly Cloudy
5:35 PM 16.9 °F 8.5 °F 1.2 °F 50% 30.25 in 10.0 mi West 5.8 mph - N/A   Scattered Clouds
5:55 PM 17.8 °F 10.9 °F -0.0 °F 46% 30.25 in 10.0 mi West 4.6 mph - N/A   Mostly Cloudy
6:15 PM 17.1 °F 7.6 °F 0.5 °F 48% 30.25 in 10.0 mi West 6.9 mph - N/A   Scattered Clouds
6:35 PM 16.3 °F - 0.7 °F 50% 30.25 in 10.0 mi Calm Calm - N/A   Mostly Cloudy
6:55 PM 15.8 °F 10.2 °F 0.3 °F 51% 30.25 in 10.0 mi WNW 3.5 mph - N/A   Scattered Clouds
7:15 PM 14.2 °F - -0.4 °F 52% 30.25 in 10.0 mi Calm Calm - N/A   Scattered Clouds
7:35 PM 12.0 °F - -0.4 °F 58% 30.25 in 10.0 mi Calm Calm - N/A   Clear
7:55 PM 5.9 °F - -2.0 °F 70% 30.25 in 10.0 mi Calm Calm - N/A   Clear
8:15 PM 3.7 °F - -2.2 °F 76% 30.25 in 10.0 mi Calm Calm - N/A   Clear
8:35 PM 0.7 °F - -3.5 °F 83% 30.25 in 10.0 mi Calm Calm - N/A   Clear
8:55 PM -1.5 °F - -4.9 °F 85% 30.25 in 10.0 mi Calm Calm - N/A   Clear
9:15 PM -3.1 °F - -6.5 °F 85% 30.25 in 10.0 mi Calm Calm - N/A   Clear
9:35 PM -5.1 °F - -8.3 °F 86% 30.25 in 10.0 mi Calm Calm - N/A   Clear
9:55 PM -6.0 °F - -9.4 °F 85% 30.25 in 10.0 mi Calm Calm - N/A   Clear
10:15 PM -8.1 °F - -12.1 °F 83% 30.25 in 10.0 mi Calm Calm - N/A   Clear
10:35 PM -8.9 °F - -13.2 °F 81% 30.25 in 10.0 mi Calm Calm - N/A   Clear
10:55 PM -10.7 °F - -15.0 °F 81% 30.25 in 10.0 mi Calm Calm - N/A   Clear
11:15 PM -11.2 °F - -15.9 °F 80% 30.25 in 10.0 mi Calm Calm - N/A   Clear
11:35 PM -12.3 °F - -16.6 °F 81% 30.25 in 10.0 mi Calm Calm - N/A   Clear
11:55 PM -13.2 °F - -18.0 °F 79% 30.24 in 10.0 mi Calm Calm - N/A   Clear